Location: Haut Kerinec
(48.0623°N, 4.4081°W)
Time: 22:41:53
(UTC+00:00)

Cosmos 332 Rocket - Pass Details

Date: 01 June 2020
Orbit: 683 x 703 km, 74.0° (Epoch: 13 July)

Event Time Altitude Azimuth Distance (km) Brightness Sun altitude
Rises 21:33:33 0° 212° (SSW) 3,080 6.9 -10.9°
Reaches altitude 10° 21:35:54 10° 216° (SW) 2,165 6.2 -11.1°
Maximum altitude 21:40:43 59° 296° (WNW) 809 4.4 -11.6°
Drops below altitude 10° 21:45:34 10° 16° (NNE) 2,172 6.9 -12.1°
Sets 21:47:55 0° 21° (NNE) 3,090 7.7 -12.3°
